Starlink 5931

operational
NORAD ID: 56785 Int'l Des: 2023-078 Owner: SPXS Country: US Constellation: starlink
LEOCIRCULAR

Über Starlink 5931

Beschreibung wird geladen...

Live-Position

3D-Globus wird geladen...

Nächste Überflüge

Höhenverlauf

Altitude vs Time

uPlot chart will show altitude changes over time

Zweizeiliger Elementsatz

1 56785U 23078U 25308.35810985 .00000674 00000-0 64270-4 0 9998
2 56785 69.9980 300.5843 0002159 272.4435 87.6477 14.98319555134592
Epoch: 4. Nov. 2025 • Age: 9 hours

Aktueller Status

Höhe 584.4 km
Geschwindigkeit 7.57 km/s
Subsatellitenpunkt -36.23°S, 172.88°W
Startdatum 31. Mai 2023
Alter 2.4 years
Typ internet

Technische Details

Klassifizierung Payload
Masse 305.00 kg
Trockenmasse 290.00 kg
Gesamtmasse 305.00 kg
Länge 0.20 m
Durchmesser 2.80 m
Spannweite 9.00 m
Form Box + pan
Hersteller SPXS
Bus-Typ Starlink
Phasenstatus In Orbit
Besitzer/Staat SPXS/US

Große Konstellationen

Loading constellations...